Location: Ferchesar
(52.6477°N, 12.4298°E)
Time: 05:19:33
(UTC+02:00)

Vanguard 3 - Pass Details

Date: 07 March 2021
Orbit: 508 x 3262 km, 33.3° (Epoch: 15 April)

Event Time Altitude Azimuth Distance (km) Brightness Sun altitude
Rises 11:01:54 0° 172° (S) 6,851 13.0 29.8°
Reaches altitude 10° 11:12:53 10° 143° (SE) 6,174 13.0 30.5°
Maximum altitude 11:16:40 11° 132° (SE) 6,122 12.7 30.6°
Drops below altitude 10° 11:20:26 10° 120° (ESE) 6,174 12.4 30.8°
Sets 11:31:14 0° 92° (E) 6,865 12.1 31.3°
